Latest Coastal Weather Observations for Browse Island

IDW60701

Issued at 11:12 pm WST Monday 3 August 2015 (issued every 10 minutes, with the page automatically refreshed every 10 minutes)

About coastal observations | Map of coastal stations | Coastal observations for WA | Marine services | Other Formats
Station Details ID: 200784 Name: BROWSE ISLAND Lat: -14.11 Lon: 123.55 Height: 3.7 m
Data from the previous 72 hours. | See also: Recent months at Browse Island
Date/Time
WST
Temp

°C
Wind Pressure Rain
since 9am
mm
Weather Cloud Vis
km
Sea
Height
m
Swell
Dir
 
Speed
knots
Gust
knots
hPa Trend Height
m
Period
s
Dir
03/11:00pm 26.2 CALM 0 0 1015.9 - - - - - - - - -
03/10:30pm 26.0 SSE 3 - 1016.0 - - - - - - - - -
03/10:00pm 26.3 SSE 4 - 1015.9 - - - - - - - - -
03/09:30pm 26.0 SSE 4 - 1016.0 - - - - - - - - -
03/09:00pm 26.4 SSE 4 - 1016.2 - - - - - - - - -
03/08:30pm 26.0 SSE 4 - 1015.0 - - - - - - - - -
03/08:00pm 26.4 SE 3 - 1015.5 - - - - - - - - -
03/07:30pm 26.0 CALM 0 - 1015.0 - - - - - - - - -
03/07:00pm 26.4 ENE 3 - 1015.0 - - - - - - - - -
03/06:30pm 27.0 CALM 0 - 1014.0 - - - - - - - - -
03/06:00pm 26.6 CALM 0 - 1014.6 - - - - - - - - -
03/05:30pm 27.0 E 4 - 1014.0 - - - - - - - - -
03/05:00pm 27.3 ESE 4 - 1014.4 - - - - - - - - -
03/04:30pm 28.0 E 4 - 1014.0 - - - - - - - - -
03/04:00pm 27.6 E 3 - 1014.2 - - - - - - - - -
03/03:30pm 28.0 ENE 4 - 1014.0 - - - - - - - - -
03/03:00pm 28.4 ENE 4 - 1013.8 - - - - - - - - -
03/02:30pm 28.0 NE 4 - 1014.0 - - - - - - - - -
03/02:00pm 28.2 ENE 5 - 1014.1 - - - - - - - - -
03/01:30pm 28.0 E 4 - 1014.0 - - - - - - - - -
03/01:00pm 28.3 ENE 3 - 1014.4 - - - - - - - - -
03/12:30pm 28.0 WSW 5 - 1014.0 - - - - - - - - -
03/12:00pm 27.9 ENE 2 - 1015.1 - - - - - - - - -
03/11:30am 28.0 E 4 - 1015.0 - - - - - - - - -
03/11:00am 26.9 S 4 - 1015.8 - - - - - - - - -
03/10:30am 28.0 SE 5 - 1016.0 - - - - - - - - -
03/10:00am 26.9 SSE 4 - 1016.2 - - - - - - - - -
03/09:30am 27.0 SSE 4 - 1016.0 - - - - - - - - -
03/09:00am 26.6 SSE 4 - 1016.5 - - - - - - - - -
03/08:30am 26.0 SSW 4 - 1016.0 - - - - - - - - -
03/08:00am 25.6 S 5 - 1015.7 - - - - - - - - -
03/07:30am 26.0 S 6 - 1015.0 - - - - - - - - -
03/07:00am 25.5 S 5 - 1015.3 - - - - - - - - -
03/06:30am 26.0 S 5 - 1015.0 - - - - - - - - -
03/06:00am 25.6 S 4 - 1014.9 - - - - - - - - -
03/05:30am 26.0 SSE 4 - 1014.0 - - - - - - - - -
03/05:00am 25.9 S 4 - 1014.7 - - - - - - - - -
03/04:30am 26.0 S 4 - 1014.0 - - - - - - - - -
03/04:00am 25.9 S 5 - 1014.5 - - - - - - - - -
03/03:30am 26.0 S 6 - 1014.0 - - - - - - - - -
03/03:00am 25.8 S 6 - 1014.5 - - - - - - - - -
03/02:30am 26.0 SSE 8 - 1014.0 - - - - - - - - -
03/02:00am 25.9 SSE 9 - 1014.9 - - - - - - - - -
03/01:30am 26.0 SSE 8 - 1015.0 - - - - - - - - -
03/01:00am 26.1 SSE 10 - 1015.2 - - - - - - - - -
03/12:30am 26.0 S 11 - 1015.0 - - - - - - - - -
03/12:00am 26.0 S 11 - 1015.6 - - - - - - - - -
 
Date/Time
WST
Temp

°C
Wind Pressure Rain
since 9am
mm
Weather Cloud Vis
km
Sea
Height
m
Swell
Dir
 
Speed
knots
Gust
knots
hPa Trend Height
m
Period
s
Dir
02/11:30pm 26.0 S 10 - 1015.0 - - - - - - - - -
02/11:00pm 26.1 S 10 - 1015.9 - - - - - - - - -
02/10:30pm 26.0 S 12 - 1016.0 - - - - - - - - -
02/10:00pm 25.9 S 12 - 1016.0 - - - - - - - - -
02/09:30pm 26.0 S 13 - 1016.0 - - - - - - - - -
02/09:00pm 26.1 S 13 - 1015.7 - - - - - - - - -
02/08:30pm 26.0 S 14 - 1015.0 - - - - - - - - -
02/08:00pm 25.7 SSW 14 - 1015.3 - - - - - - - - -
02/07:30pm 26.0 SSW 13 - 1015.0 - - - - - - - - -
02/07:00pm 26.0 SSW 12 - 1014.9 - - - - - - - - -
02/06:30pm 26.0 S 12 - 1014.0 - - - - - - - - -
02/06:00pm 26.2 S 12 - 1014.6 - - - - - - - - -
02/05:30pm 26.0 S 12 - 1014.0 - - - - - - - - -
02/05:00pm 26.4 S 13 - 1014.0 - - - - - - - - -
02/04:30pm 27.0 S 12 - 1014.0 - - - - - - - - -
02/04:00pm 26.5 S 13 - 1013.7 - - - - - - - - -
02/03:30pm 27.0 S 13 - 1013.0 - - - - - - - - -
02/03:00pm 26.6 S 13 - 1014.0 - - - - - - - - -
02/02:30pm 27.0 S 12 - 1014.0 - - - - - - - - -
02/02:00pm 26.6 S 12 - 1014.4 - - - - - - - - -
02/01:30pm 27.0 S 11 - 1014.0 - - - - - - - - -
02/01:00pm 26.7 S 11 - 1015.0 - - - - - - - - -
02/12:30pm 27.0 S 11 - 1015.0 - - - - - - - - -
02/12:00pm 26.7 S 9 - 1015.8 - - - - - - - - -
02/11:30am 27.0 S 10 - 1016.0 - - - - - - - - -
02/11:00am 26.6 S 10 - 1016.5 - - - - - - - - -
02/10:30am 26.0 S 11 - 1016.0 - - - - - - - - -
02/10:00am 26.5 S 10 - 1017.0 - - - - - - - - -
02/09:30am 26.0 S 10 - 1017.0 - - - - - - - - -
02/09:00am 26.3 S 10 - 1017.1 - - - - - - - - -
02/08:30am 26.0 SSE 9 - 1017.0 - - - - - - - - -
02/08:00am 26.0 SSE 10 - 1016.8 - - - - - - - - -
02/07:30am 26.0 SSE 11 - 1016.0 - - - - - - - - -
02/07:00am 25.8 SSE 13 - 1016.2 - - - - - - - - -
02/06:30am 26.0 SSE 14 - 1016.0 - - - - - - - - -
02/06:00am 25.8 SSE 14 - 1015.6 - - - - - - - - -
02/05:30am 26.0 SSE 15 - 1015.0 - - - - - - - - -
02/05:00am 25.9 SSE 15 - 1015.1 - - - - - - - - -
02/04:30am 26.0 S 14 - 1015.0 - - - - - - - - -
02/04:00am 25.9 S 15 - 1014.9 - - - - - - - - -
02/03:30am 26.0 S 14 - 1015.0 - - - - - - - - -
02/03:00am 26.0 S 12 - 1014.8 - - - - - - - - -
02/02:30am 26.0 S 11 - 1014.0 - - - - - - - - -
02/02:00am 26.0 S 12 - 1014.8 - - - - - - - - -
02/01:30am 26.0 S 11 - 1015.0 - - - - - - - - -
02/01:00am 26.4 S 12 - 1015.0 - - - - - - - - -
02/12:30am 26.0 S 11 - 1015.0 - - - - - - - - -
02/12:00am 26.5 S 11 - 1015.2 - - - - - - - - -
 
Date/Time
WST
Temp

°C
Wind Pressure Rain
since 9am
mm
Weather Cloud Vis
km
Sea
Height
m
Swell
Dir
 
Speed
knots
Gust
knots
hPa Trend Height
m
Period
s
Dir
01/11:30pm 27.0 S 11 - 1015.0 - - - - - - - - -
01/11:00pm 26.4 S 12 - 1015.2 - - - - - - - - -
01/10:30pm 26.0 S 13 - 1015.0 - - - - - - - - -
01/10:00pm 26.4 S 14 - 1015.1 - - - - - - - - -
01/09:30pm 26.0 S 13 - 1015.0 - - - - - - - - -
01/09:00pm 26.3 S 14 - 1015.0 - - - - - - - - -
01/08:30pm 27.0 S 15 - 1015.0 - - - - - - - - -
01/08:00pm 26.1 S 13 - 1014.9 - - - - - - - - -
01/07:30pm 26.0 SSW 13 - 1014.0 - - - - - - - - -
01/07:00pm 26.3 S 13 - 1014.7 - - - - - - - - -
01/06:30pm 26.0 S 13 - 1014.0 - - - - - - - - -
01/06:00pm 26.2 S 12 - 1014.0 - - - - - - - - -
01/05:30pm 26.0 S 13 - 1013.0 - - - - - - - - -
01/05:00pm 26.4 S 13 - 1013.6 - - - - - - - - -
01/04:30pm 27.0 S 14 - 1013.0 - - - - - - - - -
01/04:00pm 26.6 S 14 - 1013.6 - - - - - - - - -
01/03:30pm 27.0 S 13 - 1013.0 - - - - - - - - -
01/03:00pm 26.6 S 13 - 1013.7 - - - - - - - - -
01/02:30pm 27.0 S 12 - 1014.0 - - - - - - - - -
01/02:00pm 26.5 SSE 12 - 1014.3 - - - - - - - - -
01/01:30pm 26.0 S 12 - 1014.0 - - - - - - - - -
01/01:00pm 26.6 SSE 11 - 1014.9 - - - - - - - - -
01/12:30pm 27.0 SSE 11 - 1015.0 - - - - - - - - -
01/12:00pm 26.5 SSE 11 - 1015.6 - - - - - - - - -
01/11:30am 27.0 SSE 11 - 1016.0 - - - - - - - - -
01/11:00am 26.3 SSE 10 - 1016.5 - - - - - - - - -
01/10:30am 26.0 SSE 11 - 1016.0 - - - - - - - - -
01/10:00am 26.5 SSE 11 - 1016.9 - - - - - - - - -
01/09:30am 26.0 SSE 10 - 1017.0 - - - - - - - - -
01/09:00am 25.9 SSE 12 - 1016.9 - - - - - - - - -
01/08:30am 26.0 SSE 11 - 1016.0 - - - - - - - - -
01/08:00am 26.0 S 11 - 1016.4 - - - - - - - - -
01/07:30am 26.0 S 11 - 1016.0 - - - - - - - - -
01/07:00am 25.7 S 11 - 1015.7 - - - - - - - - -
01/06:30am 26.0 S 9 - 1015.0 - - - - - - - - -
01/06:00am 25.6 SSE 6 - 1015.2 - - - - - - - - -
01/05:30am 25.0 SE 5 - 1015.0 - - - - - - - - -
01/05:00am 25.4 ESE 5 - 1014.8 - - - - - - - - -
01/04:30am 26.0 E 6 - 1014.0 - - - - - - - - -
01/04:00am 25.6 E 8 - 1014.7 - - - - - - - - -
01/03:30am 26.0 E 10 - 1014.0 - - - - - - - - -
01/03:00am 25.7 E 10 - 1014.7 - - - - - - - - -
01/02:30am 26.0 ESE 9 - 1014.0 - - - - - - - - -
01/02:00am 25.8 ESE 9 - 1014.7 - - - - - - - - -
01/01:30am 26.0 SE 10 - 1014.0 - - - - - - - - -
01/01:00am 26.1 SE 9 - 1014.9 - - - - - - - - -
01/12:30am 26.0 SE 9 - 1015.0 - - - - - - - - -
01/12:00am 26.1 SSE 9 - 1015.0 - - - - - - - - -
 
Date/Time
WST
Temp

°C
Wind Pressure Rain
since 9am
mm
Weather Cloud Vis
km
Sea
Height
m
Swell
Dir
 
Speed
knots
Gust
knots
hPa Trend Height
m
Period
s
Dir
31/11:30pm 26.0 SSE 8 - 1015.0 - - - - - - - - -

Other Formats:

Comma delimited format used in spreadsheet applications
http://www.bom.gov.au/fwo/IDW60701/IDW60701.94103.axf

JavaScript Object Notation format (JSON) in row-major order
http://www.bom.gov.au/fwo/IDW60701/IDW60701.94103.json